Vertical_Velocity
1 0 0 0 -1 -0 -2 -1 1 -2 1 -3 -1 1 0 -2 0 -3 -1 -0 1 0 1 1 -0 1 -1 -0 -0 0 0 -1 -1 -0 -0 -0 -0 -0 -0 0 1 1 -1 -0 -0 1 1
0 2 -0 1 3 -1 -1 -2 0 0 -2 1 -0 1 -1 1 -0 -0 -0 -2 0 1 1 1 1 0 0 -1 -0 -1 -1 -1 -0 -0 -1 -0 -0 -0 -0 -1 1 -1 1 1 -0 1 0
-1 1 2 1 0 2 1 2 -3 0 -1 -3 -1 -5 -2 -1 -1 3 -2 1 -1 -0 0 -1 0 -0 -1 -2 -1 0 -1 -1 -1 -1 -0 1 0 -0 0 1 1 -1 -1 -1 -1 0 -1
-1 -2 -0 1 1 1 1 0 3 -1 -1 -2 -3 -0 -9 -3 -3 -2 4 1 -0 -0 0 -1 -1 1 0 -1 -1 2 -1 -2 -0 -1 -1 -1 -1 -1 -1 -1 -1 -0 -0 1 -0 1 -2
-1 -1 -1 -0 -1 -0 1 -0 0 1 3 -0 -1 -2 1 -3 -3 -4 -5 1 2 1 1 1 -0 -1 1 1 1 -2 -1 -2 0 -0 -2 -3 -1 -1 -2 -1 -1 -1 -2 -2 -2 -4 -5
-0 1 -1 -0 -1 1 -0 -1 1 1 -1 1 0 2 -5 -2 -2 -5 -3 -3 0 -1 1 1 2 -1 0 -0 -1 -1 -1 -1 -2 -3 -2 -2 -2 -3 -3 -3 -4 -4 -4 -4 -3 -5 -7
-1 -2 0 -1 1 -1 -0 0 -1 2 -1 -2 -1 -2 0 -3 -3 -2 -2 -2 -5 -2 0 -0 1 2 0 0 0 -2 0 -0 -1 -1 -1 -1 -1 -1 -0 -1 -2 -3 -3 -3 -2 -1 -4
-0 -1 -2 -0 -2 -1 -0 2 -2 -1 1 -0 -0 -0 2 -1 -3 -2 -2 -8 -0 -4 -2 1 -0 1 2 1 -1 0 1 0 -1 -3 -1 -1 -1 -2 -3 -3 -4 -2 -1 -1 -1 -0 0
1 -0 -0 -2 -2 -1 2 -0 -0 -2 -1 -0 -3 -1 -1 1 1 -0 -4 0 -4 1 -1 0 1 2 2 3 0 0 -1 -1 -2 -0 -1 -0 -2 -3 -2 -0 1 -2 -2 -2 -3 -5 -4
1 -0 1 -0 -2 -1 -0 0 0 -0 -0 -1 1 -1 -2 -0 -0 3 1 -1 -1 -1 -2 0 -3 -3 0 1 2 0 -0 -0 -2 -1 -2 -2 -2 1 1 -0 -1 -1 -1 -1 2 1 -4
0 1 -1 2 -1 0 -2 1 1 -0 -3 3 0 -1 -0 -4 2 -0 2 -1 1 -1 -3 -2 0 -1 -1 -1 1 -1 -0 -1 -1 -1 -1 -1 -0 2 1 -0 -3 -3 -1 -2 0 -0 -1
7 -2 0 8 0 0 -2 0 -2 -2 0 -3 -0 1 -4 1 -3 -0 -1 -1 -2 -0 -8 -2 -1 -1 -1 -0 -1 -1 0 -0 -0 -0 -1 -1 -1 0 -1 -2 -3 -4 -0 0 0 -0 -1
-2 2 -2 -4 -1 2 -3 -1 0 -3 -1 -0 -1 -2 -0 -1 -0 1 -1 -1 -1 -0 -0 -1 -1 -0 0 -1 -2 -2 -1 -0 -1 -1 -0 -0 -0 -1 -0 -0 -2 -1 -1 -2 -3 -1 -3
-4 0 0 1 -2 3 -3 -1 1 4 -3 2 2 -0 -1 -3 1 1 2 1 -1 -2 -1 0 -2 -1 -1 0 -1 -1 0 -0 -0 -0 -1 -1 0 -2 -2 -2 -2 -3 -5 -4 -4 -1 -3
1 5 2 -0 -6 1 0 2 1 -1 -3 -1 -1 0 -0 1 -2 1 0 1 -2 -1 -0 -0 -1 -1 -1 -2 1 -2 -1 0 0 -1 -0 -1 -0 0 -0 -1 -2 1 -2 -3 -2 -2 1
-6 -10 3 8 0 0 -1 1 -4 1 -0 1 -3 -2 4 0 -0 1 3 1 -1 3 -0 0 1 -0 -1 -1 -2 -1 -3 -2 -2 -1 -2 -0 0 0 1 -0 -1 -2 -2 -1 -1 -4 -1
0 7 -0 7 5 0 3 -2 3 -2 -0 -1 1 -6 1 -3 -2 -1 -1 -0 0 2 4 3 -0 -0 0 -0 -1 -1 -2 -1 -0 -1 -1 -2 1 -1 1 -2 -1 -1 -2 -1 -1 -3 -4
1 -4 -1 4 3 6 3 1 2 -0 2 -1 -2 5 4 -2 2 -3 -1 -0 -4 3 2 1 0 1 1 2 -1 1 -1 -1 -1 -1 -1 -2 -0 -1 -0 -0 -0 -1 -2 0 -3 -1 1
8 0 -5 -4 -7 12 11 3 2 4 -0 2 3 -0 -3 5 -3 -2 -2 -3 -2 -1 1 -2 -0 -1 0 1 -2 -0 -0 -1 -1 -2 -0 -0 -0 -1 -1 -0 -1 -1 -1 0 -0 1 -4
7 9 -6 -5 6 6 3 -0 1 3 -1 4 3 5 -1 -3 1 2 2 -2 -3 -1 -0 1 0 1 0 1 -0 -1 -1 -0 -0 1 -1 0 -2 -1 -8 -1 -2 -5 -2 0 1 -1 -2
-2 4 9 2 -1 9 0 -5 3 2 2 9 1 -1 -1 -5 -3 1 2 -3 2 -2 -1 1 -3 0 1 1 2 -3 -0 0 -0 -1 3 -1 -3 0 0 1 1 -2 2 2 -6 4 -8
-4 2 -2 8 14 0 -0 7 -5 4 4 7 1 9 -4 2 0 2 4 0 2 -2 2 -0 -3 4 2 -2 2 -3 -0 -1 1 -1 3 -0 -2 0 -3 0 -1 -10 4 1 2 -2 -9
2 -2 -3 1 -1 -1 10 7 3 5 2 -0 -4 1 4 2 1 2 0 4 1 7 1 2 4 3 0 3 1 2 0 1 -1 1 3 2 0 1 -2 1 2 -9 -5 3 2 -4 6
5 -7 3 2 -14 7 18 -1 2 9 11 9 0 -2 2 -1 4 2 -1 1 0 2 4 2 4 3 -2 3 3 2 0 2 1 2 2 -1 3 3 0 0 -5 -8 -0 -1 -3 -3 -5
-5 3 -3 1 -0 6 -4 7 10 -6 4 1 8 -0 -2 -4 6 1 -1 -2 0 0 -3 4 3 6 1 1 3 2 -1 3 -4 1 2 3 5 -0 -1 -1 -6 -8 -9 -2 1 -8 -5
2 1 -3 5 -7 1 -3 15 6 -1 6 -0 2 3 6 -1 5 -1 0 0 -0 -1 2 3 3 2 2 3 1 -0 -4 0 0 -2 1 2 4 2 2 0 -4 -3 0 0 3 -36 -3
-4 -2 3 -0 -2 -4 -5 -4 -3 3 2 9 2 6 1 -1 3 1 -1 -2 2 2 2 5 -0 0 7 0 3 -2 -3 -2 -5 -1 -2 2 2 -5 3 -0 -12 -2 2 5 1 -10 -0
-4 -5 -2 1 -5 -1 -2 6 8 16 1 7 8 -3 5 2 5 -1 1 1 -0 5 7 2 6 -3 -1 -1 -1 -4 -1 -0 -1 -1 -1 2 1 -3 7 2 -20 5 4 -1 3 2 -1
-2 -2 -3 3 1 2 3 0 7 2 7 3 2 4 1 1 -1 1 -0 -3 1 -1 2 0 -3 -5 5 -1 -3 3 -1 0 2 -4 -1 -8 -4 0 -5 1 2 1 3 1 3 2 1
Height
3133 3133 3133 3132 3131 3130 3129 3127 3127 3126 3124 3122 3120 3118 3116 3114 3111 3109 3106 3103 3102 3100 3099 3097 3096 3095 3095 3094 3094 3094 3093 3092 3092 3092 3093 3094 3095 3097 3099 3100 3102 3103 3103 3105 3105 3106 3106
3133 3132 3131 3131 3131 3130 3128 3127 3126 3125 3124 3122 3119 3117 3115 3113 3110 3108 3105 3102 3100 3099 3097 3096 3094 3093 3093 3093 3092 3092 3092 3092 3092 3092 3092 3092 3093 3094 3096 3097 3099 3100 3101 3102 3101 3101 3101
3131 3131 3131 3130 3129 3129 3128 3126 3125 3123 3123 3121 3119 3117 3114 3112 3109 3106 3104 3101 3099 3098 3096 3093 3092 3090 3091 3092 3090 3091 3091 3091 3091 3091 3091 3092 3092 3094 3095 3096 3097 3097 3099 3099 3100 3099 3098
3131 3130 3129 3129 3128 3128 3127 3125 3124 3123 3121 3120 3119 3117 3115 3111 3109 3106 3102 3100 3097 3096 3095 3093 3090 3089 3089 3089 3090 3091 3090 3089 3089 3089 3090 3090 3091 3092 3093 3095 3095 3097 3098 3097 3098 3097 3097
3128 3129 3128 3127 3127 3126 3125 3125 3123 3121 3119 3118 3116 3115 3114 3111 3108 3105 3102 3099 3097 3094 3093 3092 3090 3089 3089 3089 3090 3088 3089 3088 3087 3087 3088 3089 3091 3091 3092 3092 3094 3094 3095 3095 3096 3095 3094
3127 3126 3126 3126 3125 3124 3124 3123 3122 3121 3118 3116 3115 3112 3111 3110 3107 3104 3100 3098 3095 3094 3093 3091 3090 3091 3090 3088 3087 3087 3086 3086 3086 3085 3086 3087 3088 3089 3090 3090 3091 3092 3092 3092 3091 3089 3087
3125 3124 3123 3123 3123 3123 3122 3121 3120 3119 3117 3114 3112 3110 3108 3106 3105 3102 3099 3096 3097 3094 3091 3089 3089 3088 3088 3087 3086 3085 3084 3084 3083 3084 3084 3085 3086 3087 3087 3087 3087 3087 3087 3087 3085 3083 3081
3121 3121 3120 3120 3120 3119 3119 3119 3118 3117 3115 3113 3110 3108 3105 3103 3101 3099 3097 3094 3092 3094 3090 3088 3087 3087 3086 3085 3084 3083 3084 3083 3081 3081 3082 3083 3083 3083 3083 3083 3083 3083 3083 3082 3081 3080 3078
3118 3117 3118 3117 3117 3116 3116 3116 3116 3114 3113 3111 3109 3106 3103 3101 3098 3097 3094 3092 3090 3089 3088 3087 3086 3085 3085 3084 3082 3082 3081 3080 3079 3079 3079 3079 3081 3079 3081 3081 3081 3080 3080 3079 3079 3075 3074
3114 3114 3114 3114 3114 3112 3111 3111 3112 3111 3110 3108 3106 3104 3102 3099 3099 3095 3093 3090 3089 3087 3085 3084 3083 3083 3082 3081 3081 3079 3078 3080 3077 3077 3076 3078 3077 3077 3077 3077 3077 3077 3077 3075 3074 3072 3072
3109 3110 3110 3110 3110 3109 3108 3107 3107 3107 3106 3105 3104 3101 3099 3096 3094 3092 3092 3089 3087 3086 3087 3082 3079 3079 3078 3080 3079 3075 3075 3073 3074 3073 3075 3076 3076 3076 3076 3074 3073 3076 3073 3071 3069 3068 3068
3104 3105 3105 3104 3104 3104 3104 3103 3102 3102 3101 3101 3100 3098 3095 3093 3090 3089 3088 3087 3087 3088 3079 3076 3076 3075 3076 3075 3075 3074 3074 3073 3073 3072 3071 3073 3074 3074 3072 3071 3070 3071 3070 3066 3065 3066 3066
3099 3099 3099 3100 3099 3099 3099 3098 3098 3097 3097 3096 3096 3094 3092 3089 3087 3085 3084 3084 3086 3081 3076 3073 3072 3072 3073 3072 3072 3071 3071 3070 3070 3070 3070 3071 3070 3070 3070 3069 3068 3068 3066 3066 3067 3064 3063
3093 3094 3095 3094 3094 3093 3092 3093 3093 3091 3091 3090 3090 3089 3087 3085 3082 3081 3081 3082 3080 3073 3071 3069 3069 3069 3069 3069 3068 3068 3068 3067 3066 3066 3065 3066 3064 3066 3066 3067 3066 3064 3065 3067 3074 3068 3062
3087 3087 3088 3089 3089 3088 3087 3087 3087 3086 3085 3085 3085 3084 3082 3080 3079 3077 3078 3076 3071 3069 3069 3066 3066 3065 3065 3065 3066 3064 3063 3064 3063 3063 3064 3062 3062 3061 3062 3062 3064 3062 3063 3065 3065 3066 3064
3079 3080 3083 3083 3083 3082 3082 3080 3081 3080 3080 3081 3080 3079 3077 3075 3074 3073 3073 3071 3068 3066 3065 3063 3062 3062 3060 3060 3062 3060 3059 3059 3059 3060 3059 3059 3059 3059 3059 3059 3059 3060 3062 3063 3063 3068 3062
3072 3073 3076 3076 3076 3077 3076 3076 3075 3075 3075 3075 3074 3073 3071 3069 3069 3069 3066 3064 3062 3061 3060 3060 3057 3057 3057 3056 3057 3056 3054 3054 3053 3055 3055 3055 3056 3057 3056 3054 3055 3056 3057 3058 3059 3060 3059
3065 3067 3070 3071 3070 3069 3070 3070 3069 3069 3070 3068 3067 3068 3064 3063 3064 3059 3058 3058 3057 3055 3055 3054 3053 3052 3052 3052 3051 3052 3049 3049 3049 3050 3051 3052 3052 3051 3051 3050 3050 3051 3051 3052 3052 3053 3052
3058 3059 3061 3064 3064 3063 3064 3064 3063 3063 3063 3062 3060 3059 3058 3056 3053 3053 3051 3050 3050 3049 3049 3048 3047 3046 3046 3047 3049 3045 3044 3044 3045 3046 3046 3047 3047 3048 3047 3048 3046 3044 3044 3045 3046 3046 3043
3050 3053 3054 3057 3057 3058 3058 3058 3057 3056 3056 3056 3054 3052 3050 3047 3047 3045 3044 3043 3043 3043 3042 3042 3041 3040 3041 3041 3041 3039 3039 3040 3040 3041 3041 3042 3041 3040 3038 3037 3038 3038 3037 3038 3039 3038 3032
3044 3046 3048 3049 3052 3051 3052 3052 3051 3050 3049 3049 3047 3045 3042 3040 3039 3038 3037 3036 3036 3036 3036 3035 3033 3033 3035 3035 3034 3033 3033 3035 3035 3035 3035 3037 3034 3034 3033 3032 3032 3031 3030 3029 3026 3026 3025
3035 3038 3040 3041 3042 3044 3044 3044 3044 3044 3042 3041 3040 3039 3035 3035 3033 3031 3029 3027 3027 3028 3030 3027 3027 3028 3028 3028 3028 3028 3028 3029 3030 3030 3031 3029 3028 3028 3027 3026 3025 3024 3021 3019 3018 3016 3013
3027 3028 3030 3033 3034 3037 3036 3037 3036 3036 3036 3033 3032 3031 3029 3025 3023 3023 3022 3022 3020 3024 3022 3021 3021 3021 3021 3022 3022 3022 3023 3023 3024 3024 3025 3025 3023 3023 3021 3021 3019 3015 3007 3006 3005 3004 3006
3018 3019 3021 3021 3024 3027 3026 3028 3029 3028 3028 3025 3024 3023 3021 3016 3015 3014 3014 3013 3014 3016 3016 3015 3015 3014 3016 3015 3016 3016 3017 3017 3018 3017 3018 3017 3018 3020 3017 3018 3018 3001 2999 2998 2998 2997 2996
3011 3011 3013 3013 3014 3017 3019 3019 3018 3020 3019 3017 3015 3014 3012 3008 3006 3005 3005 3004 3006 3008 3008 3009 3008 3008 3008 3010 3011 3010 3011 3012 3010 3009 3010 3011 3012 3014 3014 3008 2998 2996 2993 2992 2990 2990 2989
3005 3003 3005 3005 3005 3008 3010 3010 3010 3011 3009 3010 3009 3007 3005 3001 3000 2999 2997 2998 2999 3001 3002 3001 3001 3001 3003 3003 3004 3003 3004 3004 3002 3001 3001 3003 3005 3008 3005 3004 2998 2989 2987 2987 2987 2982 2982
2999 2997 2997 2997 2998 2998 3000 3002 3003 3004 3002 3001 3000 3001 2997 2992 2992 2991 2991 2992 2995 2996 2995 2995 2995 2995 2996 2997 2998 2998 2998 2998 2996 2993 2993 2995 2995 2996 2998 2996 2986 2983 2983 2982 2985 2982 2977
2994 2991 2991 2990 2991 2991 2992 2993 2995 2993 2994 2994 2992 2990 2990 2985 2983 2983 2984 2986 2988 2990 2990 2990 2991 2990 2991 2991 2991 2991 2989 2989 2988 2986 2986 2987 2988 2986 2989 2991 2983 2976 2976 2977 2975 2973 2973
2987 2985 2984 2984 2984 2985 2985 2986 2986 2986 2986 2983 2982 2981 2979 2976 2976 2975 2976 2978 2980 2981 2984 2984 2984 2985 2984 2983 2985 2983 2982 2981 2981 2981 2980 2982 2980 2979 2980 2974 2972 2970 2970 2969 2969 2967 2966